Location: ????????
(41.2031°N, 22.5756°E)
Time: 13:46:15
(UTC+00:00)

Cosmos 1238 Rocket - Pass Details

Date: 01 December 2020
Orbit: 376 x 1024 km, 83.0° (Epoch: 20 January)

Event Time Altitude Azimuth Distance (km) Brightness Sun altitude
Rises 17:20:20 0° 348° (NNW) 2,697 6.4 -25.5°
Reaches altitude 10° 17:22:20 10° 344° (NNW) 1,890 5.6 -25.9°
Maximum altitude 17:26:27 60° 265° (W) 755 3.6 -26.7°
Drops below altitude 10° 17:31:26 10° 186° (S) 2,282 6.1 -27.6°
Sets 17:34:02 0° 183° (S) 3,315 6.9 -28.1°
